{"data":{"norad_id":67997,"intl_designator":"2026-039M","name":"STARLINK-36994","alt_names":[],"object_type":"PAYLOAD","status":"ACTIVE","operator":null,"country":"US","launch_date":"2026-02-27","launch_site_code":"AFETR","launch_vehicle":null,"mission":null,"orbit_class":"UNKNOWN","rcs_meters":null,"size_class":null,"mass_kg":null,"dimensions":null,"purposes":["comms"],"wikipedia_slug":null,"has_3d_model":false,"image_url":null,"decayed_at":null,"tle_current":{"epoch":"2026-09-19T09:43:12.717984Z","epoch_age_seconds":154264,"freshness":"FRESH","line1":"1 67997U 26039M   26262.40500831  .00017594  00000+0  64713-3 0  9996","line2":"2 67997  43.0030  34.5868 0003619 288.3081  71.7377 15.27587913 31333","mean_motion":15.27587913,"eccentricity":0.0003619,"inclination_deg":43.003,"raan_deg":34.5868,"arg_perigee_deg":288.3081,"mean_anomaly_deg":71.7377,"bstar":0.00064713,"rev_number":3133,"period_min":94.266260406055,"perigee_km":480.54234710005,"apogee_km":485.50845644645,"semimajor_km":6861.1624017732,"source":"CELESTRAK","updated_at":"2026-09-20T09:00:43.736825Z"}}}